Location: Kumla
(59.1265°N, 15.1401°E)
Time: 22:09:32
(UTC+01:00)

Vanguard 1 - Pass Details

Date: 08 December 2023
Orbit: 653 x 3825 km, 34.3° (Epoch: 04 March)

Event Time Altitude Azimuth Distance (km) Brightness Sun altitude
Rises 21:13:03 0° 258° (WSW) 6,641 14.7 -44.2°
Reaches altitude 10° 21:17:59 10° 248° (WSW) 6,025 14.3 -44.7°
Maximum altitude 21:33:15 28° 200° (SSW) 5,379 13.5 -46.2°
Enters shadow 21:34:13 28° 196° (SSW) 5,408 13.5 -46.3°
